This demonstration page uses our WeatherBlox Daily Observations layout. Learn more.

40.92945, -100.16068

Hourly Observations for June 1, 2019

Temp ( °F °C ) Dew Point ( °F °C ) Humidity (%) Winds ( mph kmh ) Pressure ( in mb ) Visibility ( mi km ) Precip ( " mm )
12:15 am 00:15 Clear 63 17 58 14.7 86 86 S 9 15 29.85 1011 10 16.09344 0 0
12:35 am 00:35 Clear 62 16.7 58 14.7 88 88 S 10 17 29.85 1011 10 16.09344 0 0
12:55 am 00:55 Clear 61 16.2 58 14.5 90 90 S 5 7 29.85 1011 10 16.09344 0 0
1:15 am 01:15 Clear 61 16.3 58 14.2 87 87 NW 13 20 29.88 1012 10 16.09344 0 0
1:35 am 01:35 Clear 63 17 57 14 83 83 N 8 13 29.88 1012 10 16.09344 0 0
1:55 am 01:55 Clear 60 15.5 57 13.8 90 90 Calm 29.91 1013 10 16.09344 0 0
2:15 am 02:15 Clear 58 14.3 56 13.4 94 94 Calm 29.91 1013 10 16.09344 0 0
2:35 am 02:35 Clear 58 14.4 56 13.4 94 94 Calm 29.91 1013 10 16.09344 0 0
2:55 am 02:55 Clear 56 13.6 55 12.7 94 94 Calm 29.91 1013 10 16.09344 0 0
3:15 am 03:15 Clear 56 13.2 55 12.8 97 97 NNW 9 15 29.91 1013 7 11.265408 0 0
3:35 am 03:35 Clear 56 13.5 55 12.9 96 96 NNW 6 9 29.91 1013 7 11.265408 0 0
3:55 am 03:55 Clear 55 12.8 54 12.3 97 97 NW 3 6 29.91 1013 7 11.265408 0 0
4:15 am 04:15 Clear 54 12.3 53 11.4 94 94 NW 7 11 29.94 1014 10 16.09344 0 0
4:35 am 04:35 Clear 55 12.5 52 11.2 92 92 WNW 6 9 29.94 1014 10 16.09344 0 0
4:55 am 04:55 Clear 53 11.5 51 10.6 94 94 WNW 7 11 29.94 1014 10 16.09344 0 0
5:15 am 05:15 Clear 53 11.5 51 10.5 94 94 WNW 5 7 29.94 1014 10 16.09344 0 0
5:35 am 05:35 Clear 52 11.1 51 10.4 96 96 WNW 6 9 29.94 1014 10 16.09344 0 0
5:55 am 05:55 Clear 51 10.7 50 10.2 97 97 WNW 7 11 29.97 1015 10 16.09344 0 0
6:15 am 06:15 Sunny 51 10.5 50 10.1 97 97 WNW 6 9 29.97 1015 10 16.09344 0 0
6:35 am 06:35 Sunny 52 11 51 10.5 97 97 NW 7 11 29.97 1015 10 16.09344 0 0
6:55 am 06:55 Sunny 53 11.5 51 10.8 96 96 WNW 7 11 29.97 1015 10 16.09344 0 0
7:15 am 07:15 Sunny 55 12.7 53 11.6 93 93 NW 7 11 30 1016 10 16.09344 0 0
7:35 am 07:35 Sunny 57 13.8 54 12.2 90 90 NNW 10 17 29.97 1015 10 16.09344 0 0
7:55 am 07:55 Sunny 58 14.5 55 12.6 88 88 NNW 13 20 29.97 1015 10 16.09344 0 0
8:15 am 08:15 Sunny 59 15 55 12.7 86 86 NNW 10 17 29.97 1015 10 16.09344 0 0
8:35 am 08:35 Sunny 60 15.7 55 12.9 84 84 N 10 17 29.97 1015 10 16.09344 0 0
8:55 am 08:55 Sunny 62 16.5 56 13.1 80 80 N 12 19 29.94 1014 10 16.09344 0 0
9:15 am 09:15 Sunny 63 17.2 56 13.4 78 78 N 12 19 29.97 1015 10 16.09344 0 0
9:35 am 09:35 Sunny 65 18.1 56 13.4 74 74 N 17 28 29.97 1015 10 16.09344 0 0
9:55 am 09:55 Sunny 66 18.7 56 13.6 72 72 N 13 20 29.97 1015 10 16.09344 0 0
10:15 am 10:15 Sunny 66 19 55 13 68 68 N 17 28 29.97 1015 10 16.09344 0 0
10:35 am 10:35 Sunny 67 19.5 55 12.7 65 65 N 16 26 29.97 1015 10 16.09344 0 0
10:55 am 10:55 Sunny 67 19.6 55 12.9 65 65 N 15 24 29.97 1015 10 16.09344 0 0
11:15 am 11:15 Sunny 67 19.7 55 12.6 64 64 N 17 28 29.97 1015 10 16.09344 0 0
11:35 am 11:35 Sunny 68 20.2 56 13.1 64 64 N 17 28 29.94 1014 10 16.09344 0 0
11:55 am 11:55 Sunny 69 20.4 56 13.4 64 64 N 15 24 29.94 1014 10 16.09344 0 0
12:15 pm 12:15 Sunny 69 20.6 56 13.5 64 64 NNE 13 20 29.94 1014 10 16.09344 0 0
12:35 pm 12:35 Sunny 69 20.8 56 13.1 62 62 N 12 19 29.94 1014 10 16.09344 0 0
12:55 pm 12:55 Sunny 70 21.1 56 13.4 62 62 N 9 15 29.94 1014 10 16.09344 0 0
1:15 pm 13:15 Sunny 71 21.4 56 13.4 60 60 N 10 17 29.94 1014 10 16.09344 0 0
1:35 pm 13:35 Sunny 71 21.4 57 13.7 62 62 NE 9 15 29.94 1014 10 16.09344 0 0
1:55 pm 13:55 Sunny 71 21.8 57 13.8 61 61 N 8 13 29.94 1014 10 16.09344 0 0
2:15 pm 14:15 Sunny 71 21.7 55 13 58 58 NNE 7 11 29.94 1014 10 16.09344 0 0
2:35 pm 14:35 Sunny 72 22 57 14 61 61 NNE 9 15 29.94 1014 10 16.09344 0 0
2:55 pm 14:55 Sunny 72 22 56 13.2 58 58 NNW 8 13 29.94 1014 10 16.09344 0 0
3:15 pm 15:15 Sunny 72 22.1 56 13.6 59 59 NNE 3 6 29.94 1014 10 16.09344 0 0
3:35 pm 15:35 Sunny 73 22.5 57 14.1 59 59 NE 7 11 29.94 1014 10 16.09344 0 0
3:55 pm 15:55 Sunny 72 22.4 56 13.1 56 56 NE 10 17 29.94 1014 10 16.09344 0 0
4:15 pm 16:15 Sunny 73 22.5 56 13.2 56 56 NE 3 6 29.94 1014 10 16.09344 0 0
4:35 pm 16:35 Sunny 73 22.5 56 13.5 57 57 ENE 5 7 29.91 1013 10 16.09344 0 0
4:55 pm 16:55 Sunny 73 22.6 56 13.2 55 55 NNE 9 15 29.91 1013 10 16.09344 0 0
5:15 pm 17:15 Sunny 73 22.5 56 13.1 55 55 NE 5 7 29.91 1013 10 16.09344 0 0
5:35 pm 17:35 Sunny 73 22.6 56 13.1 55 55 NE 6 9 29.91 1013 10 16.09344 0 0
5:55 pm 17:55 Sunny 72 22.3 56 13.1 56 56 N 5 7 29.91 1013 10 16.09344 0 0
6:15 pm 18:15 Sunny 72 22.2 55 12.9 56 56 NE 3 6 29.91 1013 10 16.09344 0 0
6:35 pm 18:35 Sunny 72 22 55 12.9 56 56 ENE 6 9 29.91 1013 10 16.09344 0 0
6:55 pm 18:55 Sunny 72 22 55 12.6 55 55 NE 6 9 29.91 1013 10 16.09344 0 0
7:15 pm 19:15 Sunny 71 21.4 55 13 59 59 NE 6 9 29.91 1013 10 16.09344 0 0
7:35 pm 19:35 Sunny 70 21.2 56 13.2 60 60 ENE 5 7 29.91 1013 10 16.09344 0 0
7:55 pm 19:55 Sunny 67 19.7 56 13.6 68 68 NE 5 7 29.94 1014 10 16.09344 0 0
8:15 pm 20:15 Sunny 66 18.7 55 12.9 69 69 NE 7 11 29.94 1014 10 16.09344 0 0
8:35 pm 20:35 Sunny 64 18 56 13.4 75 75 NE 5 7 29.94 1014 10 16.09344 0 0
8:55 pm 20:55 Sunny 63 17.3 55 12.7 75 75 NE 7 11 29.94 1014 10 16.09344 0 0
9:15 pm 21:15 Clear 62 16.8 54 12.2 74 74 NE 9 15 29.94 1014 10 16.09344 0 0
9:35 pm 21:35 Clear 61 16 55 12.6 80 80 ENE 6 9 29.97 1015 10 16.09344 0 0
9:55 pm 21:55 Clear 60 15.5 55 12.6 83 83 E 6 9 30 1016 10 16.09344 0 0
10:15 pm 22:15 Clear 59 15 55 12.5 85 85 ENE 6 9 30 1016 10 16.09344 0 0
10:35 pm 22:35 Clear 59 15 55 12.6 86 86 ENE 7 11 30 1016 10 16.09344 0 0
10:55 pm 22:55 Clear 58 14.7 54 12.2 85 85 E 7 11 30 1016 10 16.09344 0 0
11:15 pm 23:15 Clear 58 14.6 53 11.7 83 83 E 6 9 30 1016 10 16.09344 0 0
11:35 pm 23:35 Clear 59 14.8 53 11.5 81 81 ESE 6 9 30 1016 10 16.09344 0 0
11:55 pm 23:55 Clear 58 14.7 53 11.5 81 81 E 7 11 30 1016 10 16.09344 0 0

Powered by AerisWeather